Location: ???????
(54.6339°N, 39.4245°E)
Time: 07:53:10
(UTC+00:00)

Cosmos 1953 - Pass Details

Date: 19 May 2025
Orbit: 485 x 501 km, 82.5° (Epoch: 23 June)

Event Time Altitude Azimuth Distance (km) Brightness Sun altitude
Rises 22:19:08 0° 353° (N) 2,573 7.1 -14.3°
Reaches altitude 10° 22:21:21 10° 1° (N) 1,687 6.1 -14.2°
Maximum altitude 22:24:50 40° 72° (ENE) 736 3.2 -14.1°
Enters shadow 22:28:12 11° 143° (SE) 1,628 4.4 -13.9°
